STARLINK-4254, 52998

Orbit data source: Space-Track

STARLINK-4254, 52998 is a payload satellite owned by SpaceX/Seattle (US) in LEO that was launched on Thu, 07 Jul 2022 UTC via an FALCON 9 launch vehicle from the Air Force Eastern Test Range (AFETR). Payload-class satellites include a variety of spacecraft equipped with specific instruments for various scientific and technological missions. These include communications satellites like Starlink; space stations such as the ISS; scientific satellites like the Hubble; Earth observation satellites from companies like Planet Labs, Umbra, and HawkEye 360; GPS; miniature CubeSats for education and research; and military/defense satellites.

Loading next visibility...
Identifier
52998, 2022-076N
Orbit
LEO
Country
Flag of USUS
Related business
Manufacturer
SpaceX/Seattle
Mission
Operational Commercial Communications
Bus & Motor
STARLINK, Unknown motor
Mass
297 kg wet, ~275 kg dry
Launch date (UTC)
2022-07-07 (3 years ago)
Launch vehicle
FALCON 9
Launch site
Air Force Eastern Test Range (AFETR)
Object type
Payload
Rocket body
Debris
Shape & HBR
Box + 1 Pan, 10.1 m
Radar Cross Section
13.562 m², Large (>1 m²)

Expand to show TLE details & history
Last TLE update: 17 hours ago

TLE from 17 hours ago
0 STARLINK-4254
1 52998U 22076N   25340.74719661  .00002499  00000-0  17504-3 0  9999
2 52998  53.2162 151.2678 0001257  87.6636 272.4500 15.08844521188819
Epoch: 2025-12-06T17:55Z
TLE epoch observation values (Epoch: 2025-12-06T17:55:57.787Z)
Latitude
-0.00001°
Longitude
166.50652°
Altitude
540.59 km
Speed
7.593 km/s
True Right ascension
10h 05m 04s
True Declination
0° 00' 00"
Sunlit
Object was in daylight at epoch
Visualization orbit readout
Latitude
Unknown
Longitude
Unknown
Altitude
Unknown
Speed
Unknown
Apparent Right ascension
Unknown
Apparent Declination
Unknown
Sunlit
N/A
Visualization observer readout
Local Sidereal Time
08:31:37
Azimuth
Unknown
Elevation
Unknown
Doppler factor
Unknown
Orbital elements
Apogee altitude
540.844 km
Perigee altitude
539.105 km
Semi-major axis
6,918.112 km
Eccentricity
0.00013
Inclination
53.2162°
RAAN
151.2678°
Arg. of periapsis
87.6636°
True anomaly
272.43561°
Mean anomaly
272.45°
Eccentric anomaly
272.4428°
Mean motion
3.77191 °/min
Orbital period
95.44 mins
BSTAR
0.00017504
Loading maneuver chart data...
Computing Atmospheric mass density...
Loading historical data...
Loading historical data...
Loading historical data...
Loading historical data...
Loading historical data...
Loading historical data...
Loading historical data...

Documentation

Showing up to 5 results
|